Weather History for Columbia Airport, CA

Change the Weather History Date:

Monday, April 21, 2014

  Actual Average (KMOD) Record (KMOD)
Temperature  
Mean Temperature 58 °F -  
Max Temperature 73 °F 76 °F 98 °F (2009)
Min Temperature 44 °F 50 °F 33 °F (1932)
Degree Days  
Heating Degree Days 6 4  
Month to date heating degree days 105  
Since 1 July heating degree days 2110  
Cooling Degree Days 0 2  
Month to date cooling degree days 19  
Year to date cooling degree days 24  
Growing Degree Days 8 (Base 50)    
Moisture  
Dew Point 39 °F    
Average Humidity 52    
Maximum Humidity 93    
Minimum Humidity 27    
Precipitation  
Precipitation 0.00 in 0.03 in 2.00 in (1955)
Month to date precipitation 0.73  
Year to date precipitation 7.76  
Since 1 July precipitation 12.12  
Snow  
Snow 0.00 in - - ()
Month to date snowfall  
Since 1 July snowfall  
Snow Depth -    
Sea Level Pressure  
Sea Level Pressure 30.04 in    
Wind  
Wind Speed 2 mph (WSW)    
Max Wind Speed 9 mph    
Max Gust Speed -    
Visibility 10 miles    
Events      
T = Trace of Precipitation, MM = Missing Value Source: NWS Daily Summary

Daily Weather History Graph

Daily Weather History Graph

Search for Another Location

Airport:

Trip Planner

Search our weather history database for the weather conditions in past years. The results will help you decide how hot, cold, wet, or windy it might be!

Date:

Astronomy

Apr. 21, 2014 Rise Set
Actual Time 6:17 AM PDT 7:43 PM PDT
Civil Twilight 5:50 AM PDT 8:11 PM PDT
Nautical Twilight 5:17 AM PDT 8:44 PM PDT
Astronomical Twilight 4:42 AM PDT 9:19 PM PDT
Moon 1:16 AM PDT 11:51 AM PDT
Length of Visible Light 14h 20m
Length of Day
13h 25m
Waning Gibbous, 56% of the Moon is Illuminated
Apr 21
Waning Gibbous
Apr 22
Last Quarter
Apr 28
New
May 6
First Quarter
May 14
Full

Hourly Weather History & Observations

Time (PDT) Temp. Dew Point Humidity Pressure Visibility Wind Dir Wind Speed Gust Speed Precip Events Conditions
12:15 AM 48.2 °F 41.0 °F 76% 30.10 in 10.0 mi Calm Calm - N/A   Partly Cloudy
12:35 AM 48.2 °F 41.0 °F 76% 30.10 in 10.0 mi Calm Calm - N/A   Clear
12:55 AM 48.2 °F 41.0 °F 76% 30.10 in 10.0 mi Calm Calm - N/A   Clear
1:15 AM 46.4 °F 41.0 °F 81% 30.10 in 10.0 mi Calm Calm - N/A   Clear
1:35 AM 46.4 °F 41.0 °F 81% 30.09 in 10.0 mi Calm Calm - N/A   Clear
1:55 AM 46.4 °F 41.0 °F 81% 30.08 in 10.0 mi Calm Calm - N/A   Clear
2:15 AM 46.4 °F 41.0 °F 81% 30.08 in 10.0 mi Calm Calm - N/A   Partly Cloudy
2:35 AM 46.4 °F 41.0 °F 81% 30.07 in 10.0 mi Calm Calm - N/A   Scattered Clouds
2:55 AM 46.4 °F 41.0 °F 81% 30.08 in 10.0 mi Calm Calm - N/A   Overcast
3:15 AM 46.4 °F 41.0 °F 81% 30.07 in 10.0 mi Calm Calm - N/A   Mostly Cloudy
3:35 AM 46.4 °F 41.0 °F 81% 30.08 in 10.0 mi Calm Calm - N/A   Mostly Cloudy
3:55 AM 44.6 °F 41.0 °F 87% 30.08 in 10.0 mi Calm Calm - N/A   Mostly Cloudy
4:15 AM 44.6 °F 41.0 °F 87% 30.08 in 10.0 mi Calm Calm - N/A   Overcast
4:35 AM 44.6 °F 41.0 °F 87% 30.07 in 10.0 mi Calm Calm - N/A   Overcast
4:55 AM 44.6 °F 41.0 °F 87% 30.07 in 10.0 mi Calm Calm - N/A   Mostly Cloudy
5:15 AM 44.6 °F 41.0 °F 87% 30.06 in 10.0 mi Calm Calm - N/A   Mostly Cloudy
5:35 AM 44.6 °F 41.0 °F 87% 30.06 in 10.0 mi Calm Calm - N/A   Partly Cloudy
5:55 AM 44.6 °F 41.0 °F 87% 30.06 in 10.0 mi Calm Calm - N/A   Clear
6:35 AM 44.6 °F 42.8 °F 93% 30.07 in 10.0 mi Calm Calm - N/A   Clear
6:55 AM 46.4 °F 44.6 °F 93% 30.07 in 10.0 mi Calm Calm - N/A   Clear
7:15 AM 48.2 °F 44.6 °F 87% 30.07 in 10.0 mi Calm Calm - N/A   Clear
7:35 AM 51.8 °F 44.6 °F 76% 30.07 in 10.0 mi Calm Calm - N/A   Clear
7:55 AM 55.4 °F 46.4 °F 72% 30.07 in 10.0 mi Calm Calm - N/A   Clear
8:15 AM 59.0 °F 50.0 °F 72% 30.07 in 10.0 mi Calm Calm - N/A   Clear
8:35 AM 62.6 °F 46.4 °F 55% 30.07 in 10.0 mi Calm Calm - N/A   Clear
8:55 AM 66.2 °F 42.8 °F 43% 30.07 in 10.0 mi South 3.5 mph - N/A   Clear
9:15 AM 66.2 °F 42.8 °F 43% 30.08 in 10.0 mi SSW 3.5 mph - N/A   Clear
9:35 AM 66.2 °F 41.0 °F 40% 30.08 in 10.0 mi South 4.6 mph - N/A   Clear
9:55 AM 68.0 °F 42.8 °F 40% 30.08 in 10.0 mi South 4.6 mph - N/A   Clear
10:15 AM 68.0 °F 42.8 °F 40% 30.08 in 10.0 mi South 4.6 mph - N/A   Clear
10:55 AM 68.0 °F 41.0 °F 37% 30.08 in 10.0 mi South 5.8 mph - N/A   Clear
11:15 AM 71.6 °F 42.8 °F 35% 30.08 in 10.0 mi SE 5.8 mph - N/A   Clear
11:35 AM 71.6 °F 41.0 °F 33% 30.08 in 10.0 mi SSE 3.5 mph - N/A   Clear
11:55 AM 71.6 °F 41.0 °F 33% 30.08 in 10.0 mi South 4.6 mph - N/A   Clear
12:15 PM 73.4 °F 41.0 °F 31% 30.08 in 10.0 mi SSE 4.6 mph - N/A   Clear
12:35 PM 71.6 °F 41.0 °F 33% 30.07 in 10.0 mi SSW 4.6 mph - N/A   Clear
12:55 PM 73.4 °F 41.0 °F 31% 30.07 in 10.0 mi SW 4.6 mph - N/A   Clear
1:15 PM 73.4 °F 41.0 °F 31% 30.07 in 10.0 mi SW 5.8 mph - N/A   Clear
1:35 PM 73.4 °F 41.0 °F 31% 30.06 in 10.0 mi SW 3.5 mph - N/A   Clear
1:55 PM 73.4 °F 39.2 °F 29% 30.05 in 10.0 mi Calm Calm - N/A   Clear
2:15 PM 73.4 °F 39.2 °F 29% 30.05 in 10.0 mi WSW 5.8 mph - N/A   Clear
2:35 PM 71.6 °F 37.4 °F 29% 30.05 in 10.0 mi WSW 4.6 mph - N/A   Clear
2:55 PM 71.6 °F 37.4 °F 29% 30.05 in 10.0 mi WSW 3.5 mph - N/A   Clear
3:15 PM 71.6 °F 37.4 °F 29% 30.05 in 10.0 mi SW 4.6 mph - N/A   Clear
3:55 PM 71.6 °F 41.0 °F 33% 30.04 in 10.0 mi Calm Calm - N/A   Clear
4:15 PM 68.0 °F 39.2 °F 35% 30.02 in 10.0 mi Calm Calm - N/A   Clear
4:35 PM 68.0 °F 41.0 °F 37% 30.01 in 10.0 mi Calm Calm - N/A   Partly Cloudy
4:55 PM 68.0 °F 41.0 °F 37% 30.00 in 10.0 mi East 4.6 mph - N/A   Clear
5:15 PM 68.0 °F 39.2 °F 35% 29.98 in 10.0 mi NE 4.6 mph - N/A   Partly Cloudy
5:35 PM 68.0 °F 39.2 °F 35% 29.96 in 10.0 mi North 3.5 mph - N/A   Partly Cloudy
5:55 PM 68.0 °F 39.2 °F 35% 29.96 in 10.0 mi Calm Calm - N/A   Mostly Cloudy
6:15 PM 68.0 °F 37.4 °F 33% 29.96 in 10.0 mi Calm Calm - N/A   Scattered Clouds
6:35 PM 64.4 °F 39.2 °F 40% 29.95 in 10.0 mi Calm Calm - N/A   Mostly Cloudy
6:55 PM 64.4 °F 42.8 °F 45% 29.95 in 10.0 mi West 4.6 mph - N/A   Mostly Cloudy
7:15 PM 64.4 °F 39.2 °F 40% 29.95 in 10.0 mi WNW 4.6 mph - N/A   Partly Cloudy
7:35 PM 64.4 °F 39.2 °F 40% 29.96 in 10.0 mi West 8.1 mph - N/A   Clear
7:55 PM 60.8 °F 39.2 °F 45% 29.97 in 10.0 mi NW 8.1 mph - N/A   Clear
8:15 PM 59.0 °F 37.4 °F 45% 29.97 in 10.0 mi NW 9.2 mph - N/A   Clear
8:35 PM 59.0 °F 37.4 °F 45% 29.96 in 10.0 mi NNW 6.9 mph - N/A   Partly Cloudy
8:55 PM 57.2 °F 32.0 °F 38% 29.97 in 10.0 mi NW 5.8 mph - N/A   Scattered Clouds
9:15 PM 57.2 °F 24.8 °F 29% 29.97 in 10.0 mi WNW 5.8 mph - N/A   Scattered Clouds
9:35 PM 59.0 °F 24.8 °F 27% 29.97 in 10.0 mi NW 5.8 mph - N/A   Mostly Cloudy
9:55 PM 57.2 °F 24.8 °F 29% 29.97 in 10.0 mi WNW 3.5 mph - N/A   Overcast
10:15 PM 57.2 °F 24.8 °F 29% 29.98 in 10.0 mi WNW 9.2 mph - N/A   Mostly Cloudy
10:35 PM 55.4 °F 26.6 °F 33% 29.97 in 10.0 mi North 3.5 mph - N/A   Overcast
10:55 PM 55.4 °F 24.8 °F 31% 29.96 in 10.0 mi NNW 3.5 mph - N/A   Mostly Cloudy
11:15 PM 55.4 °F 26.6 °F 33% 29.95 in 10.0 mi NW 3.5 mph - N/A   Mostly Cloudy
11:35 PM 55.4 °F 24.8 °F 31% 29.95 in 10.0 mi Calm Calm - N/A   Overcast
11:55 PM 53.6 °F 26.6 °F 35% 29.93 in 10.0 mi Calm Calm - N/A   Overcast